Location: Brachstadt
(48.6975°N, 10.6755°E)
Time: 09:13:44
(UTC+00:00)

ATLAS CENTAUR R/B - Pass Details

Date: 18 September 2020
Orbit: 479 x 667 km, 64.7° (Epoch: 12 October)

Event Time Altitude Azimuth Distance (km) Brightness Sun altitude
Rises 17:47:29 0° 251° (WSW) 2,676 6.1 -4.9°
Reaches altitude 10° 17:50:01 10° 265° (W) 1,756 5.5 -5.3°
Maximum altitude 17:53:17 25° 322° (NW) 1,054 3.4 -5.8°
Drops below altitude 10° 17:56:28 10° 19° (NNE) 1,697 3.7 -6.3°
Sets 17:58:52 0° 34° (NNE) 2,565 4.5 -6.7°
